Location: Newark
(51.7378°N, 19.8125°E)
Time: 13:00:16
(UTC+00:00)

Envisat - Pass Details

Date: 08 December 2019
Orbit: 764 x 766 km, 98.1° (Epoch: 18 January)

Event Time Altitude Azimuth Distance (km) Brightness Sun altitude
Rises 17:11:21 0° 188° (S) 3,222 6.4 -23.5°
Reaches altitude 10° 17:13:48 10° 196° (SSW) 2,301 5.7 -23.9°
Maximum altitude 17:18:30 37° 264° (W) 1,173 4.4 -24.6°
Drops below altitude 10° 17:23:15 10° 332° (NNW) 2,317 5.7 -25.4°
Sets 17:25:44 0° 340° (NNW) 3,248 6.4 -25.8°
